EDT,Max TemperatureF,Mean TemperatureF,Min TemperatureF,Max Dew PointF,MeanDew PointF,Min DewpointF,Max Humidity, Mean Humidity, Min Humidity, Max Sea Level PressureIn, Mean Sea Level PressureIn, Min Sea Level PressureIn, Max VisibilityMiles, Mean VisibilityMiles, Min VisibilityMiles, Max Wind SpeedMPH, Mean Wind SpeedMPH, Max Gust SpeedMPH,PrecipitationIn, CloudCover, Events, WindDirDegrees
2012-10-1,71,56,41,54,45,39,100,83,41,29.96,29.87,29.83,10,6,1,9,1,16,0.00,0,,270
2012-10-2,64,60,57,63,60,54,100,93,80,30.00,29.97,29.94,10,6,2,6,1,,0.34,8,Rain,20
2012-10-3,72,66,62,70,66,62,100,98,88,30.11,30.04,29.97,8,2,0,4,0,,0.11,7,Fog-Rain,2
2012-10-4,75,66,59,72,65,57,100,96,85,30.13,30.08,30.03,8,3,0,5,0,,0.03,5,Fog-Rain,170
2012-10-5,80,66,51,62,55,50,100,89,45,30.07,30.02,29.92,10,4,0,4,0,,0.01,1,Fog,-1
2012-10-6,75,60,44,61,52,45,100,89,59,29.99,29.87,29.77,10,4,0,14,1,23,0.01,2,Fog,316
2012-10-7,52,44,37,47,43,37,97,89,69,30.12,30.07,30.01,10,7,0,4,0,,0.13,5,Fog-Rain,300
2012-10-8,54,44,35,47,39,34,100,89,61,30.28,30.20,30.11,10,5,0,5,0,,0.02,3,Fog-Rain,6
2012-10-9,59,52,46,54,49,44,94,84,72,30.22,30.14,30.07,10,10,7,6,2,,0.03,8,Rain,21
2012-10-10,68,60,53,56,51,39,100,84,48,30.06,29.95,29.81,10,6,1,8,2,17,0.37,7,Rain,359
2012-10-11,60,50,37,39,34,29,93,58,32,30.22,30.14,30.00,10,10,10,15,4,21,0.00,0,,295
2012-10-12,57,46,34,41,33,28,96,68,38,30.45,30.20,30.09,10,10,6,17,3,26,0.00,2,,333
2012-10-13,55,41,27,37,27,22,93,66,28,30.53,30.43,30.30,10,10,9,5,0,,0.01,0,,160
2012-10-14,73,58,42,52,47,37,97,75,41,30.28,30.11,29.94,10,10,10,9,3,16,0.00,3,,193
2012-10-15,69,60,50,64,58,48,100,94,70,29.92,29.70,29.64,10,5,0,9,1,,0.48,7,Fog-Rain,216
2012-10-16,60,49,37,52,39,35,97,67,41,29.92,29.80,29.69,10,10,10,15,4,23,0.00,1,,315
2012-10-17,63,48,33,45,39,32,97,78,44,30.02,29.97,29.93,10,10,9,6,1,,0.01,0,,256
2012-10-18,70,52,36,58,48,35,97,79,47,30.03,29.97,29.89,10,10,7,9,2,17,0.00,4,,128
2012-10-19,71,66,62,68,64,59,100,95,87,29.88,29.73,29.64,10,6,0,8,4,47,1.82,8,Fog-Rain,149
2012-10-20,66,56,45,63,52,42,100,85,48,29.85,29.70,29.64,10,5,0,13,2,18,0.01,4,Fog,287
2012-10-21,68,54,42,43,41,38,96,68,36,30.05,29.96,29.88,10,10,9,12,3,20,0.00,1,,295
2012-10-22,69,53,37,46,41,37,100,75,32,30.13,30.07,30.01,10,9,2,14,2,18,0.01,0,,294
2012-10-23,64,53,42,54,48,40,97,82,58,30.13,30.08,30.05,10,10,8,4,0,,0.00,4,Rain,-1
2012-10-24,66,60,53,56,54,52,96,84,68,30.18,30.12,30.08,10,7,4,14,2,127,0.00,7,,53
2012-10-25,62,60,57,57,55,53,97,87,78,30.26,30.22,30.18,10,9,4,6,1,52,0.01,8,Rain,98
2012-10-26,66,62,57,57,56,55,96,85,70,30.22,30.17,30.09,10,9,6,4,0,,0.00,8,,335
2012-10-27,66,60,55,57,55,52,90,79,60,30.09,29.98,29.90,10,10,8,6,1,29,0.00,5,,67
2012-10-28,59,58,57,53,47,41,81,67,55,29.89,29.77,29.65,10,10,10,16,9,26,0.00,6,,42
2012-10-29,63,58,53,59,52,45,94,85,67,29.62,28.96,28.45,10,4,1,32,19,55,0.95,8,Rain,23
2012-10-30,,,,,,,,,,29.42,29.40,29.37,,,,,,,0.00,,,-1
2012-10-31,,,,,,,,,,29.56,29.53,29.51,,,,,,,0.00,,,-1